Tracking 29528 objects as of 12-Sep-2024
HD Live streaming from Space Station
objects crossing your sky now

STARLINK-31881

Track STARLINK-31881 now!
10-day predictions
STARLINK-31881 is classified as:


NORAD ID: 59659
Int'l Code: 2024-084F
Perigee: 449.4 km
Apogee: 452.9 km
Inclination: 43.0 °
Period: 93.5 minutes
Semi major axis: 6822 km
RCS: Unknown
Launch date: May 6, 2024
Source: United States (US)
Launch site: AIR FORCE EASTERN TEST RANGE (AFETR)
Your satellite tracking list
Your tracking list is empty




NASA's NSSDC Master Catalog

Two Line Element Set (TLE):
1 59659U 24084F   24255.70989582  .00001686  00000-0  47638-4 0  9991
2 59659  43.0026 251.6398 0002568 278.5881  81.4685 15.40701077 20977
Source of the keplerian elements: AFSPC